Location: Albany
(35.0170°S, 117.8920°E)
Time: 02:03:28
(UTC+08:00)

Explorer 7 - Pass Details

Date: 30 January 2021
Orbit: 484 x 677 km, 50.3° (Epoch: 01 March)

Event Time Altitude Azimuth Distance (km) Brightness Sun altitude
Rises 18:37:02 0° 225° (SW) 3,006 11.8 6.9°
Reaches altitude 10° 18:40:13 10° 204° (SSW) 2,060 10.4 6.3°
Maximum altitude 18:43:17 17° 163° (SSE) 1,618 9.3 5.7°
Drops below altitude 10° 18:46:15 10° 123° (ESE) 1,980 9.3 5.1°
Sets 18:49:14 0° 102° (ESE) 2,836 9.9 4.6°
